TimeCDT,TemperatureF,Dew PointF,Humidity,Sea Level PressureIn,VisibilityMPH,Wind Direction,Wind SpeedMPH,Gust SpeedMPH,PrecipitationIn,Events,Conditions,WindDirDegrees,DateUTC
12:53 AM,73.0,63.0,71,29.80,10.0,WNW,3.5,-,N/A,,Clear,290,2013-06-27 05:53:00
1:53 AM,73.0,64.9,76,29.79,10.0,Calm,Calm,-,N/A,,Clear,0,2013-06-27 06:53:00
2:53 AM,70.0,64.9,84,29.78,10.0,East,3.5,-,N/A,,Scattered Clouds,80,2013-06-27 07:53:00
3:53 AM,71.1,64.9,81,29.78,10.0,Calm,Calm,-,N/A,,Mostly Cloudy,0,2013-06-27 08:53:00
4:53 AM,70.0,64.9,84,29.79,10.0,Calm,Calm,-,N/A,,Overcast,0,2013-06-27 09:53:00
5:53 AM,70.0,64.9,84,29.79,10.0,Calm,Calm,-,N/A,,Clear,0,2013-06-27 10:53:00
6:53 AM,73.9,64.9,73,29.79,10.0,WSW,5.8,-,N/A,,Partly Cloudy,250,2013-06-27 11:53:00
7:53 AM,75.9,64.9,69,29.79,10.0,West,8.1,-,N/A,,Clear,280,2013-06-27 12:53:00
8:53 AM,78.1,64.0,62,29.78,10.0,WNW,11.5,-,N/A,,Clear,300,2013-06-27 13:53:00
9:53 AM,80.1,64.0,58,29.78,10.0,WNW,12.7,-,N/A,,Clear,300,2013-06-27 14:53:00
10:53 AM,82.9,62.1,49,29.78,10.0,NW,16.1,20.7,N/A,,Clear,320,2013-06-27 15:53:00
11:53 AM,84.0,59.0,43,29.78,10.0,WNW,16.1,24.2,N/A,,Clear,300,2013-06-27 16:53:00
12:53 PM,84.0,57.9,41,29.78,10.0,WNW,20.7,28.8,N/A,,Clear,290,2013-06-27 17:53:00
1:53 PM,86.0,55.0,35,29.78,10.0,NW,19.6,29.9,N/A,,Clear,310,2013-06-27 18:53:00
2:53 PM,86.0,54.0,33,29.78,10.0,WNW,21.9,34.5,N/A,,Clear,290,2013-06-27 19:53:00
3:53 PM,86.0,54.0,33,29.77,10.0,WNW,18.4,27.6,N/A,,Clear,300,2013-06-27 20:53:00
4:53 PM,84.9,54.0,34,29.78,10.0,West,24.2,29.9,N/A,,Clear,280,2013-06-27 21:53:00
5:53 PM,84.9,55.0,36,29.77,10.0,WNW,18.4,28.8,N/A,,Clear,290,2013-06-27 22:53:00
6:53 PM,84.0,55.9,38,29.77,10.0,WNW,13.8,20.7,N/A,,Partly Cloudy,290,2013-06-27 23:53:00
7:53 PM,82.0,54.0,38,29.77,10.0,WNW,13.8,-,N/A,,Clear,290,2013-06-28 00:53:00
8:53 PM,79.0,55.9,45,29.77,10.0,WNW,10.4,-,N/A,,Clear,290,2013-06-28 01:53:00
9:53 PM,78.1,55.9,46,29.76,10.0,West,4.6,-,N/A,,Clear,270,2013-06-28 02:53:00
10:53 PM,77.0,57.0,50,29.76,10.0,West,9.2,-,N/A,,Clear,280,2013-06-28 03:53:00
11:53 PM,77.0,55.9,48,29.76,10.0,NW,11.5,-,N/A,,Clear,320,2013-06-28 04:53:00